Simultaneous Nadir Overpasses (SNOs) Predictions

Prediction of SNOs between GOES-16 and AQUA Satellite Orbit:

Table of predicted SNOs for the next 14.0 days since TLE Epoch: 5/9/2025
Index Date Time (GOES-16) GOES-16 Lat,Lon AQUA Lat,Lon Distance(km) Time Diff (sec)
1 05/10/2025 08:44:53 -0.00, -90.48 0.10, -91.03 62.86 80
2 05/12/2025 20:41:28 0.00, -91.79 0.20, -90.82 109.72 80
3 05/13/2025 09:03:19 0.00, -92.05 0.76, -95.47 389.31 80
4 05/15/2025 08:40:33 -0.01, -93.09 -0.57, -90.59 284.87 80
5 05/15/2025 21:02:34 0.00, -93.36 -0.40, -95.27 216.64 80
6 05/17/2025 20:39:46 0.01, -94.40 0.85, -90.37 458.25 80
7 05/18/2025 09:01:38 -0.00, -94.66 0.09, -95.01 40.53 80
8 05/20/2025 20:58:11 0.00, -95.97 0.26, -94.80 133.58 80
9 05/21/2025 09:20:03 0.00, -96.24 0.67, -99.45 364.67 80
10 05/23/2025 08:57:14 0.00, -97.28 -0.61, -94.55 311.50 80
